Osoyoos, British Columbia

10:23 AM PST on January 16, 2018 (GMT -0800)
Osoyoos

Weather History for CWYY - April, 2013

Change the Weather History Date:

Friday, April 5, 2013

  Actual Average (KOMK) Record (KOMK)
Temperature  
Mean Temperature 58 °F 48 °F  
Max Temperature 66 °F 61 °F 75 °F (1934)
Min Temperature 51 °F 35 °F 19 °F (1936)
Degree Days  
Heating Degree Days 6 17  
Month to date heating degree days 88  
Since 1 July heating degree days 5678  
Cooling Degree Days 0 0  
Month to date cooling degree days 0  
Year to date cooling degree days 0  
Growing Degree Days 8 (Base 50)    
Moisture  
Dew Point 43 °F    
Average Humidity 58    
Maximum Humidity 82    
Minimum Humidity 31    
Precipitation  
Precipitation 0.00 in 0.03 in 0.62 in (1972)
Month to date precipitation 0.15  
Year to date precipitation 4.64  
Sea Level Pressure  
Sea Level Pressure 29.72 in    
Wind  
Wind Speed 6 mph ()    
Max Wind Speed 14 mph    
Max Gust Speed 21 mph    
T = Trace of Precipitation, MM = Missing Value Source: Averaged Metar Reports

Daily Weather History Graph

Daily Weather History Graph

Search for Another Location

Airport or City:

Trip Planner

Search our weather history database for the weather conditions in past years. The results will help you decide how hot, cold, wet, or windy it might be!

Date:

Astronomy

Apr. 05, 2013 Rise Set
Actual Time 6:26 AM PDT 7:35 PM PDT
Civil Twilight 5:53 AM PDT 8:07 PM PDT
Nautical Twilight 5:14 AM PDT 8:47 PM PDT
Astronomical Twilight 4:32 AM PDT 9:29 PM PDT
Moon 4:00 AM PDT (4/5) 2:43 PM PDT (4/5)
Length of Visible Light 14h 14m
Length of Day
13h 09m
Waning Crescent, 22% of the Moon is Illuminated
Apr 5
Waning Crescent
Apr 10
New
Apr 18
First Quarter
Apr 25
Full
May 2
Last Quarter

Hourly Weather History & Observations

Time (PDT) Temp. Dew Point Humidity Pressure Visibility Wind Dir Wind Speed Gust Speed Precip Events Conditions
12:00 AM 54.0 °F 48.2 °F 81% 29.69 in - SE 4.6 mph - N/A   Unknown
1:00 AM 54.1 °F 46.9 °F 77% 29.70 in - SE 6.9 mph - N/A   Unknown
2:00 AM 54.5 °F 46.8 °F 75% 29.71 in - ESE 4.6 mph - N/A   Unknown
3:00 AM 54.7 °F 46.2 °F 73% 29.70 in - SE 6.9 mph - N/A   Unknown
4:00 AM 53.6 °F 45.9 °F 75% 29.71 in - SSE 5.8 mph - N/A   Unknown
5:00 AM 53 °F 46 °F 70% 29.70 in - SE 3.5 mph - -  
5:00 AM 53.4 °F 46.0 °F 76% 29.70 in - SE 3.5 mph - N/A   Unknown
6:00 AM 54.0 °F 45.0 °F 72% 29.70 in - SSE 10.4 mph - N/A   Unknown
7:00 AM 51.8 °F 46.6 °F 82% 29.70 in - South 3.5 mph - N/A   Unknown
8:00 AM 53.2 °F 45.1 °F 74% 29.70 in - SSE 8.1 mph - N/A   Unknown
9:00 AM 53.6 °F 45.7 °F 75% 29.71 in - SSE 5.8 mph - N/A   Unknown
10:00 AM 54.1 °F 44.8 °F 71% 29.72 in - SSE 8.1 mph - N/A   Unknown
11:00 AM 55 °F 43 °F 55% 29.73 in - SSE 10.4 mph - -  
11:00 AM 54.9 °F 43.3 °F 65% 29.73 in - SSE 10.4 mph - N/A   Unknown
12:00 PM 56.8 °F 43.3 °F 61% 29.74 in - South 10.4 mph 18.4 mph N/A   Unknown
1:00 PM 59.5 °F 43.5 °F 55% 29.73 in - SSE 10.4 mph 17.3 mph N/A   Unknown
2:00 PM 62.4 °F 41.2 °F 46% 29.71 in - SSE 10.4 mph - N/A   Unknown
3:00 PM 63.0 °F 40.5 °F 44% 29.71 in - South 11.5 mph - N/A   Unknown
4:00 PM 66.0 °F 40.6 °F 39% 29.71 in - SSE 13.8 mph 20.7 mph N/A   Unknown
5:00 PM 63 °F 40 °F 31% 29.73 in - South 9.2 mph - -  
5:00 PM 63.0 °F 39.9 °F 43% 29.73 in - South 9.2 mph 18.4 mph N/A   Unknown
6:00 PM 62.8 °F 38.3 °F 40% 29.72 in - SSE 5.8 mph - N/A   Unknown
7:00 PM 61.5 °F 39.6 °F 44% 29.72 in - SE 5.8 mph - N/A   Unknown
8:00 PM 60.3 °F 38.3 °F 44% 29.73 in - SSE 5.8 mph - N/A   Unknown
9:00 PM 59.9 °F 37.8 °F 44% 29.74 in - SSE 5.8 mph - N/A   Unknown
10:00 PM 59.7 °F 36.9 °F 43% 29.73 in - SE 9.2 mph - N/A   Unknown
11:00 PM 59 °F 37 °F 32% 29.73 in - SSE 8.1 mph - -  
11:00 PM 58.8 °F 37.0 °F 44% 29.73 in - SSE 8.1 mph - N/A   Unknown